Hebron, KY

3:51 PM EST on February 13, 2016 (GMT -0500)
Cincinnati-Northern KY International

Weather History for KCVG - September, 2014

Change the Weather History Date:

Monday, September 22, 2014

  Actual Average Record
Temperature  
Mean Temperature 57 °F 65 °F  
Max Temperature 66 °F 76 °F 95 °F (1895)
Min Temperature 47 °F 54 °F 34 °F (1918)
Degree Days  
Heating Degree Days 8 3  
Month to date heating degree days 45 25  
Since 1 July heating degree days 50 25  
Cooling Degree Days 0 3  
Month to date cooling degree days 94 119  
Year to date cooling degree days 1040 1087  
Growing Degree Days 6 (Base 50)    
Moisture  
Dew Point 43 °F    
Average Humidity 62    
Maximum Humidity 83    
Minimum Humidity 40    
Precipitation  
Precipitation 0.00 in 0.09 in 2.37 in (2006)
Month to date precipitation 3.18 1.90  
Year to date precipitation 33.64 31.69  
Snow  
Snow 0.00 in 0.00 in - ()
Month to date snowfall 0.0 0.0  
Since 1 July snowfall 0.0 0.0  
Since 1 September snowfall 0.0 0.0  
Snow Depth 0.00 in    
Sea Level Pressure  
Sea Level Pressure 30.18 in    
Wind  
Wind Speed 7 mph (NNW)    
Max Wind Speed 15 mph    
Max Gust Speed 21 mph    
Visibility 10 miles    
Events      
T = Trace of Precipitation, MM = Missing Value Source: NWS Daily Summary

Daily Weather History Graph

Daily Weather History Graph

Search for Another Location

Airport or City:

Trip Planner

Search our weather history database for the weather conditions in past years. The results will help you decide how hot, cold, wet, or windy it might be!

Date:

Astronomy

Sep. 22, 2014 Rise Set
Actual Time 7:26 AM EDT 7:35 PM EDT
Civil Twilight 6:59 AM EDT 8:02 PM EDT
Nautical Twilight 6:28 AM EDT 8:33 PM EDT
Astronomical Twilight 5:56 AM EDT 9:05 PM EDT
Moon 5:54 AM EDT (9/22) 6:42 PM EDT (9/22)
Length of Visible Light 13h 02m
Length of Day
12h 09m
Waning Crescent, 2% of the Moon is Illuminated
Sep 22
Waning Crescent
Sep 24
New
Oct 1
First Quarter
Oct 8
Full
Oct 15
Last Quarter

Hourly Weather History & Observations

Time (EDT) Temp. Dew Point Humidity Pressure Visibility Wind Dir Wind Speed Gust Speed Precip Events Conditions
12:52 AM 55.9 °F 48.0 °F 75% 30.06 in 10.0 mi NNW 9.2 mph - N/A   Clear
1:52 AM 54.0 °F 46.9 °F 77% 30.06 in 10.0 mi NNW 6.9 mph - N/A   Clear
2:52 AM 53.1 °F 46.9 °F 80% 30.06 in 10.0 mi NNW 6.9 mph - N/A   Clear
3:52 AM 52.0 °F 46.0 °F 80% 30.07 in 10.0 mi North 9.2 mph - N/A   Clear
4:52 AM 52.0 °F 45.0 °F 77% 30.09 in 10.0 mi North 12.7 mph - N/A   Partly Cloudy
5:52 AM 51.1 °F 46.0 °F 83% 30.11 in 10.0 mi NNW 4.6 mph - N/A   Mostly Cloudy
6:18 AM 50.0 °F 42.8 °F 76% 30.13 in 10.0 mi NNW 10.4 mph 18.4 mph N/A   Scattered Clouds
6:52 AM 48.0 °F 42.1 °F 80% 30.14 in 10.0 mi NNW 6.9 mph - N/A   Partly Cloudy
7:52 AM 46.9 °F 41.0 °F 80% 30.17 in 10.0 mi NNW 9.2 mph - N/A   Partly Cloudy
8:39 AM 48.2 °F 41.0 °F 76% 30.20 in 10.0 mi North 11.5 mph - N/A   Mostly Cloudy
8:52 AM 48.9 °F 41.0 °F 74% 30.19 in 10.0 mi North 10.4 mph - N/A   Mostly Cloudy
9:22 AM 50.0 °F 42.8 °F 76% 30.20 in 10.0 mi North 8.1 mph - N/A   Partly Cloudy
9:52 AM 52.0 °F 42.1 °F 69% 30.22 in 10.0 mi NNE 8.1 mph - N/A   Partly Cloudy
10:20 AM 53.6 °F 42.8 °F 67% 30.23 in 10.0 mi North 10.4 mph - N/A   Mostly Cloudy
10:52 AM 54.0 °F 42.1 °F 64% 30.24 in 10.0 mi North 8.1 mph - N/A   Mostly Cloudy
11:00 AM 55.4 °F 42.8 °F 63% 30.24 in 10.0 mi North 5.8 mph - N/A   Scattered Clouds
11:52 AM 57.0 °F 41.0 °F 55% 30.24 in 10.0 mi North 4.6 mph - N/A   Scattered Clouds
12:52 PM 60.1 °F 43.0 °F 53% 30.24 in 10.0 mi NW 10.4 mph - N/A   Partly Cloudy
1:52 PM 60.1 °F 42.1 °F 51% 30.23 in 10.0 mi North 8.1 mph - N/A   Clear
2:52 PM 63.0 °F 42.1 °F 46% 30.22 in 10.0 mi NW 5.8 mph - N/A   Clear
3:52 PM 64.0 °F 39.9 °F 41% 30.20 in 10.0 mi North 4.6 mph - N/A   Partly Cloudy
4:52 PM 64.9 °F 39.9 °F 40% 30.20 in 10.0 mi NNW 8.1 mph - N/A   Partly Cloudy
5:52 PM 64.9 °F 39.9 °F 40% 30.21 in 10.0 mi North 8.1 mph - N/A   Clear
6:52 PM 64.0 °F 42.1 °F 45% 30.22 in 10.0 mi NW 8.1 mph - N/A   Clear
7:52 PM 59.0 °F 43.0 °F 55% 30.22 in 10.0 mi NW 5.8 mph - N/A   Clear
8:52 PM 55.9 °F 43.0 °F 62% 30.24 in 10.0 mi WNW 3.5 mph - N/A   Clear
9:52 PM 50.0 °F 42.1 °F 74% 30.25 in 10.0 mi Calm Calm - N/A   Clear
10:52 PM 53.1 °F 42.1 °F 66% 30.26 in 10.0 mi NNW 3.5 mph - N/A   Clear
11:52 PM 53.1 °F 43.0 °F 69% 30.27 in 10.0 mi North 6.9 mph - N/A   Clear